Wind_Speed
2 3 3 3 3 4 5 6 7 7 8 8 9 10 11 11 12 13 14 14 15 16 16 16 18 19 19 20 21 21 22 22 23 23 23 23 24 24
4 4 4 5 5 6 6 7 8 8 9 9 10 11 12 13 13 13 14 15 16 17 18 18 19 20 21 22 23 24 24 24 25 25 25 26 26 26
6 6 6 6 7 8 8 9 9 10 10 11 11 12 13 14 14 15 16 16 17 18 19 20 21 22 23 24 24 26 26 26 27 28 29 29 29 29
8 9 8 9 9 10 10 10 11 12 12 13 13 14 15 15 16 17 18 19 19 20 21 22 23 24 25 26 26 27 27 28 29 30 31 31 31 31
10 10 10 11 12 12 12 12 13 14 14 15 16 17 17 18 18 19 20 21 22 23 23 25 26 26 27 28 28 29 30 30 30 31 32 33 33 34
12 12 13 13 14 14 14 14 15 16 16 17 18 18 19 19 20 21 22 23 24 25 25 27 28 28 29 29 30 31 32 32 33 33 34 35 36 36
14 14 15 15 15 15 15 16 17 18 18 19 19 20 21 21 22 23 24 25 26 27 28 29 30 30 30 31 32 33 34 34 35 35 36 37 37 38
15 15 16 16 16 17 17 18 18 19 19 20 20 21 22 23 24 25 26 27 28 29 29 30 31 31 31 32 33 34 34 35 36 37 37 38 39 39
17 17 18 18 18 18 19 20 20 20 21 21 22 23 23 24 25 26 27 27 29 30 30 30 31 31 32 33 35 35 36 37 38 39 40 41 41 42
18 18 19 19 20 21 21 21 21 22 23 23 24 25 25 26 27 28 29 29 30 31 32 32 33 34 35 35 36 37 38 39 40 41 42 43 43 44
20 20 20 21 21 21 22 22 23 24 25 25 26 27 27 28 29 30 30 31 32 33 34 34 34 35 36 37 38 39 40 41 42 43 44 45 45 46
22 22 23 23 23 24 24 24 25 26 27 27 28 29 29 30 31 31 32 33 33 34 35 36 37 38 38 39 40 41 42 43 44 45 45 46 46 46
24 24 24 25 25 25 26 26 27 28 28 29 30 30 31 32 32 33 34 35 35 36 36 37 38 39 40 39 40 42 43 44 45 46 46 46 46 47
25 26 26 27 27 27 27 28 29 29 30 31 31 32 32 33 34 34 35 36 37 38 38 39 40 40 41 41 42 43 44 45 46 47 47 47 48 48
26 27 27 28 28 28 29 30 30 31 32 32 33 33 34 35 36 36 37 37 38 39 40 41 42 42 43 43 44 44 45 46 48 49 49 49 50 51
27 29 29 29 29 30 30 31 31 32 33 33 34 35 35 36 37 38 38 39 40 41 43 44 44 45 45 46 47 47 49 49 50 50 51 51 52 52
28 29 30 30 30 30 31 31 32 33 34 34 35 35 37 38 39 40 41 42 43 43 44 45 46 47 47 48 49 50 51 51 52 52 52 52 52 53
29 29 30 31 31 32 33 34 34 35 35 36 37 38 39 41 42 43 44 45 45 46 47 47 48 49 49 50 50 51 52 53 54 54 54 54 54 55
29 30 30 31 33 34 35 35 36 37 38 38 40 41 42 43 45 46 46 47 47 48 49 50 51 51 51 52 52 54 55 56 57 56 56 56 56 56
30 30 32 33 34 36 37 37 38 39 39 41 42 43 44 46 47 48 49 49 50 50 51 51 52 53 54 55 56 56 58 59 59 58 58 58 58 57
33 33 34 35 36 38 39 39 40 40 41 43 44 45 46 47 48 49 50 50 51 51 52 53 54 55 57 58 58 58 59 59 60 60 59 58 56 55
35 35 36 37 38 39 40 41 41 41 42 43 44 46 47 48 49 50 51 51 52 52 53 54 55 56 57 58 59 59 58 58 58 57 57 56 55 54
36 37 38 39 39 40 41 42 42 42 44 45 47 48 49 49 50 50 50 51 51 52 53 54 55 56 56 57 58 58 57 56 55 53 53 53 53 53
Wind_Direction
336 325 314 309 308 301 293 286 280 276 274 271 270 271 271 275 278 280 281 278 276 276 275 277 276 275 276 278 280 279 278 277 277 278 279 279 280 281
326 325 320 313 308 306 302 295 286 282 281 279 275 277 279 280 283 284 284 283 280 280 278 278 279 279 278 280 280 281 280 277 276 277 279 279 280 279
309 310 312 311 308 304 300 295 290 287 286 285 283 281 282 287 288 288 287 287 282 283 284 282 281 281 281 280 281 282 282 280 279 278 279 279 279 278
301 302 302 303 302 301 298 295 293 291 288 287 286 285 284 288 290 290 291 289 287 287 287 286 285 285 284 283 282 283 282 281 280 279 279 278 278 278
295 297 297 298 298 297 294 293 292 291 289 288 287 286 286 288 290 289 289 289 288 287 287 286 286 286 285 284 283 283 283 283 282 281 280 280 279 278
289 291 292 293 294 294 292 292 292 291 290 288 288 288 287 287 289 289 289 289 289 288 288 288 288 288 286 284 283 283 283 283 283 283 283 283 282 281
289 290 289 289 290 290 292 293 293 291 290 288 288 288 288 288 289 289 290 291 290 290 290 289 288 288 287 286 286 284 283 283 283 283 283 283 282 281
293 294 293 291 289 289 290 291 293 292 290 289 288 289 289 290 289 290 291 291 292 292 291 290 289 288 287 287 287 285 284 283 283 283 284 284 283 282
291 292 292 292 293 293 292 291 292 291 291 290 289 288 289 290 292 292 292 293 293 293 292 291 290 290 290 289 288 287 287 286 285 285 285 284 284 283
290 291 292 292 293 294 294 293 293 293 292 291 290 290 291 292 293 293 292 293 293 293 292 291 291 291 290 290 290 289 288 288 287 287 286 286 285 284
290 291 292 293 293 293 293 293 293 293 293 293 292 292 293 294 294 294 294 293 293 293 292 292 291 291 291 290 290 290 290 289 289 288 288 287 286 285
289 290 291 292 291 292 293 293 293 293 294 294 293 293 293 293 293 294 294 295 295 294 293 292 292 291 290 290 290 290 290 289 289 289 288 287 286 285
289 290 291 290 290 291 292 292 293 294 294 294 293 293 293 292 293 293 294 295 296 296 295 294 293 293 292 291 291 291 290 290 290 290 289 288 287 286
289 291 291 292 290 291 292 293 293 293 294 294 294 294 294 294 295 295 296 296 297 296 296 296 295 295 294 293 292 292 292 292 292 291 290 289 288 287
289 291 292 292 292 292 292 293 294 294 294 293 294 294 294 295 296 297 297 297 297 297 297 296 296 296 296 296 295 294 293 293 293 292 290 289 288 287
292 293 293 293 293 293 291 292 293 293 293 293 293 294 295 296 297 298 298 298 298 298 298 297 296 295 295 296 297 296 296 295 295 293 292 291 289 288
291 292 292 292 292 294 293 293 294 294 294 294 294 294 296 297 298 298 298 298 298 298 297 297 297 297 297 297 297 297 297 296 296 295 294 292 291 290
292 293 293 292 292 293 294 294 294 294 294 293 294 295 296 297 298 298 299 299 298 298 297 297 296 296 297 297 297 297 297 297 297 296 294 293 291 290
295 294 294 294 295 295 295 295 295 295 295 295 295 296 297 297 298 298 298 298 298 298 298 298 297 296 296 296 296 297 297 297 297 295 294 293 292 291
296 296 296 297 297 297 297 297 297 297 296 296 297 297 297 298 298 298 298 298 298 298 299 298 298 298 297 297 298 298 298 298 297 295 294 293 292 291
297 297 298 298 299 300 299 298 298 297 297 297 297 298 298 298 299 299 299 299 299 300 300 300 300 299 299 298 298 299 299 299 298 297 295 294 293 292
298 298 298 299 300 300 300 300 299 299 298 298 298 298 299 300 300 300 300 300 301 301 301 301 301 300 300 300 300 300 299 299 298 297 296 296 295 295
298 299 300 300 301 302 303 302 300 300 299 299 299 299 300 301 301 301 301 302 302 302 302 302 302 302 302 302 302 302 301 300 299 297 297 296 296 296
Height
5872 5871 5870 5869 5868 5867 5867 5866 5866 5865 5864 5863 5863 5862 5861 5860 5859 5858 5856 5855 5854 5854 5853 5853 5852 5851 5850 5849 5848 5847 5846 5845 5844 5843 5842 5841 5840 5839
5871 5870 5869 5868 5867 5866 5865 5864 5863 5863 5862 5861 5860 5859 5858 5857 5855 5854 5852 5850 5849 5849 5848 5847 5847 5846 5845 5844 5843 5841 5840 5839 5838 5837 5836 5835 5834 5832
5870 5869 5868 5867 5866 5865 5864 5863 5862 5861 5860 5859 5857 5856 5855 5854 5851 5849 5848 5846 5845 5844 5843 5842 5841 5840 5839 5838 5836 5835 5833 5832 5831 5830 5829 5828 5826 5825
5869 5867 5866 5865 5864 5863 5862 5860 5859 5858 5857 5856 5854 5853 5851 5850 5848 5846 5844 5842 5840 5839 5838 5837 5836 5834 5832 5831 5829 5828 5826 5825 5824 5822 5821 5820 5818 5817
5866 5865 5864 5863 5862 5860 5859 5858 5856 5855 5853 5852 5851 5849 5847 5845 5843 5841 5839 5837 5835 5834 5832 5831 5829 5827 5825 5823 5822 5820 5819 5817 5816 5814 5812 5810 5809 5808
5864 5862 5861 5860 5859 5857 5856 5854 5852 5851 5849 5848 5846 5844 5842 5840 5838 5836 5834 5832 5830 5828 5826 5824 5822 5820 5818 5816 5814 5812 5811 5809 5807 5805 5803 5801 5799 5798
5860 5859 5858 5856 5855 5853 5852 5850 5848 5846 5845 5843 5841 5839 5837 5835 5833 5831 5828 5826 5823 5821 5819 5816 5814 5812 5810 5808 5806 5804 5802 5800 5798 5796 5793 5791 5789 5787
5856 5855 5854 5852 5851 5849 5848 5846 5844 5842 5839 5837 5836 5834 5832 5829 5827 5824 5822 5819 5817 5815 5811 5809 5806 5804 5801 5799 5797 5794 5792 5790 5788 5785 5783 5780 5778 5776
5852 5851 5849 5848 5846 5844 5843 5841 5839 5836 5834 5832 5830 5828 5826 5823 5821 5818 5815 5812 5809 5806 5803 5801 5798 5795 5792 5790 5787 5784 5782 5779 5777 5774 5772 5769 5766 5764
5848 5846 5845 5843 5841 5839 5837 5835 5833 5831 5828 5826 5824 5821 5819 5816 5814 5811 5808 5805 5802 5798 5795 5793 5789 5786 5783 5780 5777 5774 5771 5768 5765 5762 5759 5757 5754 5751
5843 5841 5839 5838 5836 5833 5831 5829 5827 5825 5822 5820 5817 5814 5812 5809 5806 5803 5800 5797 5793 5790 5786 5783 5780 5777 5774 5770 5766 5763 5759 5756 5753 5750 5746 5743 5740 5737
5837 5835 5834 5832 5830 5827 5825 5823 5820 5818 5815 5813 5810 5807 5804 5801 5798 5795 5791 5788 5784 5781 5777 5773 5770 5767 5764 5760 5756 5752 5748 5744 5740 5737 5733 5729 5726 5723
5831 5829 5827 5825 5823 5821 5818 5816 5813 5811 5808 5805 5802 5798 5795 5792 5789 5785 5782 5778 5775 5771 5767 5763 5760 5755 5752 5749 5745 5740 5735 5731 5727 5723 5720 5716 5712 5709
5824 5822 5820 5818 5816 5813 5811 5808 5806 5803 5800 5797 5793 5790 5787 5783 5780 5776 5772 5769 5765 5760 5756 5752 5748 5744 5740 5736 5733 5728 5723 5719 5714 5710 5706 5702 5698 5694
5817 5815 5813 5810 5808 5806 5803 5800 5798 5795 5791 5788 5785 5781 5778 5774 5771 5767 5763 5758 5754 5749 5745 5740 5736 5732 5728 5723 5719 5715 5710 5706 5700 5696 5692 5687 5683 5679
5810 5807 5805 5803 5800 5797 5795 5792 5789 5786 5782 5779 5776 5772 5768 5765 5761 5757 5753 5748 5743 5738 5733 5728 5724 5719 5715 5710 5705 5701 5696 5691 5686 5681 5676 5672 5667 5663
5802 5800 5797 5795 5792 5789 5786 5783 5780 5776 5773 5770 5766 5762 5759 5755 5750 5746 5742 5737 5732 5727 5722 5716 5711 5706 5702 5697 5692 5687 5681 5676 5671 5665 5661 5656 5651 5646
5794 5791 5789 5786 5783 5780 5777 5774 5770 5767 5763 5760 5756 5752 5748 5744 5739 5735 5730 5725 5719 5714 5709 5704 5699 5693 5688 5683 5678 5672 5666 5660 5655 5649 5643 5639 5635 5630
5786 5783 5780 5777 5774 5771 5767 5764 5760 5757 5753 5749 5745 5741 5736 5732 5727 5722 5717 5712 5706 5701 5695 5690 5684 5679 5674 5669 5663 5656 5650 5644 5638 5632 5627 5621 5617 5612
5777 5774 5771 5768 5764 5761 5757 5754 5750 5746 5742 5737 5733 5729 5724 5719 5714 5709 5703 5698 5692 5687 5681 5675 5669 5663 5657 5652 5647 5641 5633 5626 5620 5614 5609 5604 5599 5593
5768 5765 5762 5758 5755 5751 5747 5743 5738 5734 5730 5725 5721 5716 5711 5705 5700 5695 5689 5683 5678 5672 5666 5660 5654 5647 5640 5634 5629 5624 5616 5608 5601 5595 5589 5584 5580 5575
5759 5755 5752 5748 5744 5740 5735 5731 5727 5722 5718 5713 5708 5703 5698 5692 5686 5681 5675 5669 5663 5657 5651 5644 5638 5631 5624 5617 5611 5605 5599 5592 5584 5577 5570 5565 5559 5556
5749 5745 5741 5737 5733 5728 5724 5719 5715 5710 5705 5700 5695 5690 5684 5678 5672 5666 5660 5654 5648 5642 5635 5629 5622 5615 5608 5601 5594 5588 5581 5574 5568 5562 5557 5549 5543 5538